Time,TemperatureF,DewpointF,PressureIn,WindDirection,WindDirectionDegrees,WindSpeedMPH,WindSpeedGustMPH,Humidity,HourlyPrecipIn,Conditions,Clouds,dailyrainin,SoftwareType,DateUTC
2013-02-26 00:02:00,35.0,-99.9,-100.00,NE,45,1.0,3.0,-999,-99.99,,,-99.99,,2013-02-26 08:02:00,
2013-02-26 01:52:00,32.0,-99.9,-100.00,NE,40,3.0,4.0,-999,-99.99,,,-99.99,,2013-02-26 09:52:00,
2013-02-26 02:01:00,32.0,-99.9,-100.00,NE,40,3.0,4.0,-999,-99.99,,,-99.99,,2013-02-26 10:01:00,
2013-02-26 02:21:00,32.0,-99.9,-100.00,NE,34,2.0,2.0,-999,-99.99,,,-99.99,,2013-02-26 10:21:00,
2013-02-26 04:02:00,30.0,-99.9,-100.00,NE,40,4.0,5.0,-999,-99.99,,,-99.99,,2013-02-26 12:02:00,
2013-02-26 04:22:00,29.0,-99.9,-100.00,NE,35,2.0,3.0,-999,-99.99,,,-99.99,,2013-02-26 12:22:00,
2013-02-26 07:22:00,32.0,-99.9,-100.00,NE,35,2.0,3.0,-999,-99.99,,,-99.99,,2013-02-26 15:22:00,
2013-02-26 07:32:00,32.0,-99.9,-100.00,NE,35,2.0,3.0,-999,-99.99,,,-99.99,,2013-02-26 15:32:00,
2013-02-26 08:32:00,43.0,-99.9,-100.00,NNE,29,0.0,0.0,-999,-99.99,,,-99.99,,2013-02-26 16:32:00,
2013-02-26 08:42:00,43.0,-99.9,-100.00,NNE,29,0.0,0.0,-999,-99.99,,,-99.99,,2013-02-26 16:42:00,
2013-02-26 08:52:00,46.0,-99.9,-100.00,SSW,213,0.0,2.0,-999,-99.99,,,-99.99,,2013-02-26 16:52:00,
2013-02-26 09:02:00,46.0,-99.9,-100.00,SSW,213,0.0,2.0,-999,-99.99,,,-99.99,,2013-02-26 17:02:00,
2013-02-26 09:32:00,51.0,-99.9,-100.00,WNW,294,0.0,3.0,-999,-99.99,,,-99.99,,2013-02-26 17:32:00,
2013-02-26 09:42:00,51.0,-99.9,-100.00,WNW,294,0.0,3.0,-999,-99.99,,,-99.99,,2013-02-26 17:42:00,
2013-02-26 09:52:00,51.0,-99.9,-100.00,WNW,294,0.0,3.0,-999,-99.99,,,-99.99,,2013-02-26 17:52:00,
2013-02-26 10:02:00,58.0,-99.9,-100.00,NNE,18,4.0,7.0,-999,-99.99,,,-99.99,,2013-02-26 18:02:00,
2013-02-26 10:13:00,58.0,-99.9,-100.00,NNE,18,4.0,7.0,-999,-99.99,,,-99.99,,2013-02-26 18:13:00,
2013-02-26 10:22:00,58.0,-99.9,-100.00,NNE,18,4.0,7.0,-999,-99.99,,,-99.99,,2013-02-26 18:22:00,
2013-02-26 15:30:00,62.0,-99.9,-100.00,NNE,21,9.0,10.0,-999,-99.99,,,-99.99,,2013-02-26 23:30:00,
2013-02-26 16:02:00,62.0,-99.9,-100.00,NNE,21,9.0,10.0,-999,-99.99,,,-99.99,,2013-02-27 00:02:00,
2013-02-26 16:11:00,62.0,-99.9,-100.00,NNE,21,9.0,10.0,-999,-99.99,,,-99.99,,2013-02-27 00:11:00,
2013-02-26 16:22:00,62.0,-99.9,-100.00,NNE,21,9.0,10.0,-999,-99.99,,,-99.99,,2013-02-27 00:22:00,
2013-02-26 18:30:00,56.0,-99.9,-100.00,NNW,346,4.0,7.0,-999,-99.99,,,-99.99,,2013-02-27 02:30:00,
2013-02-26 19:02:00,56.0,-99.9,-100.00,NNW,346,4.0,7.0,-999,-99.99,,,-99.99,,2013-02-27 03:02:00,
2013-02-26 19:12:00,56.0,-99.9,-100.00,NNW,346,4.0,7.0,-999,-99.99,,,-99.99,,2013-02-27 03:12:00,
2013-02-26 19:22:00,56.0,-99.9,-100.00,NNW,346,4.0,7.0,-999,-99.99,,,-99.99,,2013-02-27 03:22:00,
2013-02-26 19:40:00,54.0,-99.9,-100.00,North,353,4.0,5.0,-999,-99.99,,,-99.99,,2013-02-27 03:40:00,
2013-02-26 20:22:00,54.0,-99.9,-100.00,North,353,4.0,5.0,-999,-99.99,,,-99.99,,2013-02-27 04:22:00,
2013-02-26 20:30:00,54.0,-99.9,-100.00,North,4,2.0,4.0,-999,-99.99,,,-99.99,,2013-02-27 04:30:00,
2013-02-26 20:32:00,54.0,-99.9,-100.00,North,353,4.0,5.0,-999,-99.99,,,-99.99,,2013-02-27 04:32:00,
2013-02-26 21:22:00,54.0,-99.9,-100.00,North,4,2.0,4.0,-999,-99.99,,,-99.99,,2013-02-27 05:22:00,
2013-02-26 22:33:00,53.0,-99.9,-100.00,NW,324,2.0,8.0,-999,-99.99,,,-99.99,,2013-02-27 06:33:00,
2013-02-26 22:42:00,53.0,-99.9,-100.00,NW,324,2.0,8.0,-999,-99.99,,,-99.99,,2013-02-27 06:42:00,
2013-02-26 22:52:00,53.0,-99.9,-100.00,NW,324,2.0,8.0,-999,-99.99,,,-99.99,,2013-02-27 06:52:00,
2013-02-26 23:01:00,51.0,-99.9,-100.00,North,0,4.0,7.0,-999,-99.99,,,-99.99,,2013-02-27 07:01:00,
2013-02-26 23:12:00,51.0,-99.9,-100.00,North,0,4.0,7.0,-999,-99.99,,,-99.99,,2013-02-27 07:12:00,
2013-02-26 23:22:00,51.0,-99.9,-100.00,North,3,6.0,7.0,-999,-99.99,,,-99.99,,2013-02-27 07:22:00,
2013-02-26 23:32:00,51.0,-99.9,-100.00,North,3,6.0,7.0,-999,-99.99,,,-99.99,,2013-02-27 07:32:00,